Accueil
METAR-TAF:

METAR-TAF

Aéroports :

Aéroport Le Mans-Arnage

Le Mans, France

latitude: 47-56N, longitude: 000-12E, altitude: 59 m

Observation

Le bulletin a été fait il y a 17 minutes, à 12:00 UTC
Vent 4 kt de nord, variant entre ouest/nord-ouest et est
Température 13°C
Humidité 33%
Pression 1023 hPa
Visibilité 10 km ou plus
pas de nuages en-dessous de 1500 mètres et pas de cumulonimbus.

METAR: LFRM 181200Z AUTO 36004KT 300V080 CAVOK 13/M03 Q1023 NOSIG

Heure: 14:17 (12:17 UTC)

Prévision

Le bulletin a été fait il y a 1 heure et 17 minutes, à 11:00 UTC
Prévision valable du 18 à 12 UTC au 19 à 12 UTC
Vent 5 kt de nord
Visibilité 10 km ou plus
pas de nuages en-dessous de 1500 mètres et pas de cumulonimbus.

TAF: LFRM 181100Z 1812/1912 35005KT CAVOK

Observations et prévisions météorologiques de plus de 4000 aéroports (messages METAR et TAF).

Les stations disponibles sont représentées par des disques jaunes et rouges sur la carte.

Passer la souris dessus pour voir le nom de la station.

Cliquer dessus pour voir les observations et prévisions météorologiques.

Pour changer de carte: cliquez sur les boutons verts avec une croix noire pour zoomer, sur le bouton vert avec un tiret pour effectuer un zoom arrière, ou sur les flèches vertes pour les cartes adjacentes.


METAR-TAF: